THORAD AGENA D DEB, 42550

Orbit data source: Space-Track

THORAD AGENA D DEB, 42550 is space debris in SSO originally from a launch on Wed, 08 Apr 1970 UTC launched from the Air Force Western Test Range (AFWTR). Debris objects in space refer to the collection of defunct objects orbiting the Earth. Examples of debris include non-operational satellites, rocket bodies, and fragments generated from explosions, collisions, or faulty payload assembly.

Loading next visibility...
Identifier
42550, 1970-025TG
Orbit
SSO
Country
Flag of USUS
Related business
Manufacturer
Unknown
Mission
Spacecraft
Bus & Motor
Unknown
Mass
Unknown
Launch date (UTC)
1970-04-08 (56 years ago)
Launch vehicle
Unknown
Launch site
Air Force Western Test Range (AFWTR)
Object type
Payload
Rocket body
Debris
Shape & HBR
Unknown shape, 0.1 m
Radar Cross Section
Small (<0.1 m²)

Expand to show TLE details & history
Last TLE update: 16 hours ago

TLE from 16 hours ago
0 THORAD AGENA D DEB
1 42550U 70025TG  25296.03225786  .00001540  00000-0  83851-3 0  9995
2 42550  99.2441 230.5720 0020657 188.0006 232.9843 14.13711650613223
Epoch: 2025-10-23T00:46Z
TLE epoch observation values (Epoch: 2025-10-23T00:46:27.079Z)
Latitude
59.58852°
Longitude
171.25089°
Altitude
865.768 km
Speed
7.421 km/s
True Right ascension
14h 18m 14s
True Declination
59° 26' 25"
Sunlit
Object was in daylight at epoch
Visualization orbit readout
Latitude
Unknown
Longitude
Unknown
Altitude
Unknown
Speed
Unknown
Apparent Right ascension
Unknown
Apparent Declination
Unknown
Sunlit
N/A
Visualization observer readout
Local Sidereal Time
12:19:39
Azimuth
Unknown
Elevation
Unknown
Doppler factor
Unknown
Orbital elements
Apogee altitude
858.81 km
Perigee altitude
828.973 km
Semi-major axis
7,222.029 km
Eccentricity
0.00207
Inclination
99.2441°
RAAN
230.572°
Arg. of periapsis
188.0006°
True anomaly
232.79559°
Mean anomaly
232.9843°
Eccentric anomaly
232.88991°
Mean motion
3.53634 °/min
Orbital period
101.8 mins
BSTAR
0.00083851
Loading maneuver chart data...
Computing Atmospheric mass density...

Documentation

Showing up to 5 results
|